SIA36 WSSS-KLAX

Flight info

Callsign SIA36
Flight time N/A
Altitude 32000
Route TOMAN1C TOMAN L625 AKMON/K0954F320 L625 ANOKI/N0513F320 L625 AVMUP/N0501F350 L625 MEVIN B462 KAZIK Y59 AZAMA Y57 DOMBI/N0487F370 Y57 LIGNI Y818 DOLBA Y824 SMOLT OTR15 MORAY DCT 34N150E 36N160E 38N170E 39N180E/N0483F390 38N170W 39N160W 40N150W 40N140W/N0477F410 39N130W DCT DACEM DCT PAINT DCT PIRAT DCT BURGL IRNMN2
Aircraft A359/H-SDE2E3GHIJ3J4J5LM1ORWXY/LB1D1

Departure

Time 2026-05-06 04:47
Airport Singapore Changi Airport (WSSS)

Arrival

Time N/A
Airport Los Angeles International Airport (KLAX)
Time Latitude Longitude Altitude Speed Heading
2026-05-06 04:13 1.36167 103.98777 31 ft 0 kts 112°
2026-05-06 04:34 1.36173 103.98762 30 ft 4 kts 109°
2026-05-06 04:34 1.36180 103.98737 28 ft 4 kts 100°
2026-05-06 04:34 1.36183 103.98710 31 ft 4 kts 87°
2026-05-06 04:34 1.36178 103.98685 31 ft 4 kts 57°
2026-05-06 04:35 1.36167 103.98672 29 ft 0 kts 22°
2026-05-06 04:39 1.36173 103.98675 31 ft 3 kts 23°
2026-05-06 04:39 1.36207 103.98690 31 ft 8 kts 23°
2026-05-06 04:39 1.36270 103.98716 31 ft 12 kts 22°
2026-05-06 04:40 1.36358 103.98753 31 ft 15 kts 22°
2026-05-06 04:40 1.36467 103.98798 31 ft 18 kts 22°
2026-05-06 04:40 1.36547 103.98815 31 ft 8 kts 355°
2026-05-06 04:40 1.36610 103.98801 31 ft 11 kts 349°
2026-05-06 04:41 1.36697 103.98800 31 ft 14 kts 14°
2026-05-06 04:41 1.36791 103.98840 31 ft 15 kts 25°
2026-05-06 04:41 1.36815 103.98859 31 ft 2 kts 83°
2026-05-06 04:41 1.36787 103.98905 31 ft 15 kts 120°
2026-05-06 04:42 1.36743 103.98999 31 ft 15 kts 114°
2026-05-06 04:42 1.36702 103.99094 31 ft 15 kts 113°
2026-05-06 04:42 1.36663 103.99187 31 ft 14 kts 112°
2026-05-06 04:42 1.36624 103.99278 31 ft 14 kts 114°
2026-05-06 04:43 1.36586 103.99366 31 ft 14 kts 114°
2026-05-06 04:43 1.36549 103.99453 31 ft 13 kts 113°
2026-05-06 04:43 1.36508 103.99535 31 ft 11 kts 119°
2026-05-06 04:43 1.36480 103.99607 31 ft 11 kts 111°
2026-05-06 04:44 1.36455 103.99676 31 ft 11 kts 110°
2026-05-06 04:44 1.36427 103.99741 31 ft 10 kts 112°
2026-05-06 04:44 1.36400 103.99806 31 ft 10 kts 113°
2026-05-06 04:44 1.36359 103.99857 31 ft 9 kts 147°
2026-05-06 04:45 1.36301 103.99870 32 ft 8 kts 174°
2026-05-06 04:45 1.36245 103.99877 32 ft 8 kts 172°
2026-05-06 04:45 1.36192 103.99886 32 ft 8 kts 172°
2026-05-06 04:45 1.36149 103.99878 32 ft 0 kts 201°
2026-05-06 04:46 1.36124 103.99868 32 ft 20 kts 202°
2026-05-06 04:46 1.35821 103.99741 35 ft 72 kts 203°
2026-05-06 04:46 1.35213 103.99484 36 ft 117 kts 202°
2026-05-06 04:47 1.34337 103.99115 37 ft 155 kts 203°
2026-05-06 04:47 1.33263 103.98675 267 ft 167 kts 200°
2026-05-06 04:47 1.32213 103.98227 671 ft 163 kts 203°
2026-05-06 04:47 1.31161 103.97757 963 ft 170 kts 201°
2026-05-06 04:48 1.30029 103.97337 1246 ft 177 kts 197°
2026-05-06 04:48 1.28819 103.96931 1389 ft 191 kts 199°
2026-05-06 04:48 1.27527 103.96443 1548 ft 205 kts 199°
2026-05-06 04:48 1.26133 103.95953 1693 ft 221 kts 197°
2026-05-06 04:49 1.24591 103.95518 1832 ft 237 kts 191°
2026-05-06 04:49 1.22929 103.95365 2202 ft 243 kts 176°
2026-05-06 04:49 1.21263 103.95731 2580 ft 249 kts 156°
2026-05-06 04:49 1.19845 103.96733 2983 ft 255 kts 130°
2026-05-06 04:50 1.18790 103.98191 3256 ft 265 kts 127°
2026-05-06 04:50 1.17556 103.99605 3515 ft 275 kts 135°
2026-05-06 04:50 1.16136 104.00922 3890 ft 281 kts 138°
2026-05-06 04:50 1.14746 104.02302 4394 ft 282 kts 130°
2026-05-06 04:51 1.13649 104.03922 4922 ft 282 kts 116°
2026-05-06 04:51 1.13039 104.05783 5400 ft 285 kts 102°
2026-05-06 04:51 1.12634 104.07731 5641 ft 296 kts 103°
2026-05-06 04:51 1.12068 104.09741 5890 ft 306 kts 109°
2026-05-06 04:52 1.11277 104.11746 6390 ft 306 kts 114°
2026-05-06 04:52 1.10421 104.13664 6869 ft 307 kts 114°
2026-05-06 04:52 1.09596 104.15635 7339 ft 309 kts 113°
2026-05-06 04:52 1.08805 104.17643 8011 ft 301 kts 103°
2026-05-06 04:53 1.08531 104.19661 8709 ft 296 kts 91°
2026-05-06 04:53 1.08599 104.21718 9257 ft 296 kts 87°
2026-05-06 04:53 1.08677 104.23780 9737 ft 298 kts 89°
2026-05-06 04:53 1.08651 104.25860 10141 ft 301 kts 91°
2026-05-06 04:54 1.08621 104.27960 10561 ft 303 kts 89°
2026-05-06 04:54 1.08669 104.30090 10854 ft 311 kts 90°
2026-05-06 04:54 1.08663 104.31534 10985 ft 319 kts 90°
2026-05-06 04:54 1.08666 104.33793 11181 ft 329 kts 89°
2026-05-06 04:55 1.08702 104.36115 11373 ft 340 kts 88°
2026-05-06 04:55 1.08761 104.38512 11557 ft 349 kts 88°
2026-05-06 04:55 1.08834 104.40971 11735 ft 358 kts 88°
2026-05-06 04:55 1.08928 104.43485 11914 ft 367 kts 86°
2026-05-06 04:56 1.09578 104.45973 12074 ft 376 kts 63°
2026-05-06 04:56 1.11155 104.48076 12237 ft 385 kts 44°
2026-05-06 04:56 1.13145 104.49906 12401 ft 392 kts 42°
2026-05-06 04:56 1.15174 104.51757 12578 ft 398 kts 43°
2026-05-06 04:57 1.17194 104.53664 12856 ft 400 kts 44°
2026-05-06 04:57 1.19199 104.55601 13165 ft 402 kts 45°
2026-05-06 04:57 1.21204 104.57562 13482 ft 404 kts 45°
2026-05-06 04:57 1.23204 104.59538 13760 ft 405 kts 45°
2026-05-06 04:58 1.25211 104.61522 14014 ft 407 kts 45°
2026-05-06 04:58 1.27229 104.63521 14254 ft 408 kts 45°
2026-05-06 04:58 1.29253 104.65527 14523 ft 410 kts 45°
2026-05-06 04:58 1.31254 104.67559 14775 ft 411 kts 49°
2026-05-06 04:59 1.32878 104.69900 14982 ft 411 kts 65°
2026-05-06 04:59 1.33729 104.72612 15207 ft 410 kts 82°
2026-05-06 04:59 1.33930 104.75416 15470 ft 411 kts 88°
2026-05-06 04:59 1.33990 104.78275 15713 ft 412 kts 89°
2026-05-06 05:00 1.34041 104.81145 15948 ft 414 kts 88°
2026-05-06 05:00 1.34100 104.84024 16178 ft 415 kts 88°
2026-05-06 05:00 1.34164 104.86910 16421 ft 417 kts 88°
2026-05-06 05:00 1.34231 104.89811 16651 ft 418 kts 88°
2026-05-06 05:01 1.34300 104.92720 16877 ft 420 kts 88°
2026-05-06 05:01 1.34368 104.95640 17102 ft 421 kts 88°